When you browse on this site, cookies collect data to enhance your experience and personalize the content and advertising you see.
Visit our Privacy Policy to learn more. By continuing to use the site, you agree to this use of cookies and data.

Stündliche Wetter Bolshie Kovali

Heute, 23 September, Mittwoch

Zeit Temperatur Niederschläge Wind Luftdruck Luftfeuchtigkeit
00:00 +13°C° 0 mm 5 m/S 740 mmHg 83%
01:00 +12°C° 0 mm 5 m/S 740 mmHg 86%
02:00 +12°C° 0 mm 5 m/S 741 mmHg 88%
03:00 +10°C° 0 mm 5 m/S 741 mmHg 89%
04:00 +10°C° 0 mm 5 m/S 741 mmHg 90%
05:00 +9°C° 0 mm 5 m/S 742 mmHg 91%
06:00 +9°C° 0 mm 5 m/S 742 mmHg 92%
07:00 +10°C° 0 mm 6 m/S 743 mmHg 87%
08:00 +11°C° 0 mm 6 m/S 743 mmHg 81%
09:00 +13°C° 0 mm 6 m/S 744 mmHg 75%
10:00 +13°C° 0.1 mm 6 m/S 745 mmHg 69%
11:00 +14°C° 0.1 mm 6 m/S 745 mmHg 63%
12:00 +14°C° 0.1 mm 6 m/S 745 mmHg 58%
13:00 +14°C° 0 mm 6 m/S 746 mmHg 54%
14:00 +14°C° 0 mm 6 m/S 747 mmHg 51%
15:00 +15°C° 0 mm 5 m/S 747 mmHg 51%
16:00 +13°C° 0 mm 4 m/S 748 mmHg 56%
17:00 +12°C° 0 mm 3 m/S 748 mmHg 60%
18:00 +10°C° 0 mm 2 m/S 749 mmHg 65%
19:00 +9°C° 0 mm 2 m/S 749 mmHg 66%
20:00 +9°C° 0 mm 2 m/S 750 mmHg 68%
21:00 +8°C° 0 mm 2 m/S 750 mmHg 69%
22:00 +9°C° 0 mm 1 m/S 750 mmHg 70%
23:00 +8°C° 0 mm 1 m/S 751 mmHg 72%

Morgen, 24 September, Donnerstag

Zeit Temperatur Niederschläge Wind Luftdruck Luftfeuchtigkeit
00:00 +8°C° 0 mm 1 m/S 751 mmHg 73%
01:00 +6°C° 0 mm 0 m/S 751 mmHg 74%
02:00 +6°C° 0 mm 0 m/S 752 mmHg 76%
03:00 +6°C° 0 mm 0 m/S 753 mmHg 77%
04:00 +6°C° 0 mm 0 m/S 753 mmHg 77%
05:00 +6°C° 0 mm 0 m/S 753 mmHg 77%
06:00 +6°C° 0 mm 0 m/S 753 mmHg 77%
07:00 +8°C° 0 mm 1 m/S 754 mmHg 71%
08:00 +10°C° 0 mm 1 m/S 754 mmHg 65%
09:00 +12°C° 0 mm 2 m/S 754 mmHg 59%
10:00 +13°C° 0 mm 2 m/S 754 mmHg 55%
11:00 +15°C° 0 mm 2 m/S 754 mmHg 51%
12:00 +16°C° 0 mm 2 m/S 754 mmHg 47%
13:00 +16°C° 0 mm 2 m/S 754 mmHg 48%
14:00 +16°C° 0 mm 2 m/S 755 mmHg 50%
15:00 +16°C° 0 mm 3 m/S 755 mmHg 51%
16:00 +14°C° 0 mm 3 m/S 755 mmHg 57%
17:00 +13°C° 0 mm 2 m/S 755 mmHg 64%
18:00 +10°C° 0 mm 2 m/S 755 mmHg 70%
19:00 +10°C° 0 mm 2 m/S 755 mmHg 69%
20:00 +9°C° 0 mm 2 m/S 755 mmHg 69%
21:00 +9°C° 0 mm 2 m/S 755 mmHg 68%
22:00 +9°C° 0 mm 2 m/S 755 mmHg 71%
23:00 +9°C° 0 mm 2 m/S 755 mmHg 73%

übermorgen, 25 September, Freitag

Zeit Temperatur Niederschläge Wind Luftdruck Luftfeuchtigkeit
00:00 +8°C° 0 mm 2 m/S 756 mmHg 75%
01:00 +8°C° 0 mm 2 m/S 756 mmHg 76%
02:00 +8°C° 0 mm 2 m/S 756 mmHg 78%
03:00 +8°C° 0 mm 2 m/S 756 mmHg 79%
04:00 +8°C° 0 mm 2 m/S 756 mmHg 79%
05:00 +7°C° 0 mm 2 m/S 756 mmHg 80%
06:00 +7°C° 0 mm 2 m/S 756 mmHg 80%
07:00 +9°C° 0 mm 2 m/S 756 mmHg 75%
08:00 +11°C° 0 mm 3 m/S 757 mmHg 70%
09:00 +12°C° 0 mm 3 m/S 757 mmHg 65%
10:00 +13°C° 0 mm 3 m/S 757 mmHg 62%
11:00 +14°C° 0 mm 3 m/S 757 mmHg 58%
12:00 +15°C° 0 mm 4 m/S 756 mmHg 55%
13:00 +16°C° 0 mm 3 m/S 757 mmHg 56%
14:00 +16°C° 0 mm 3 m/S 757 mmHg 56%
15:00 +16°C° 0 mm 3 m/S 757 mmHg 57%
16:00 +14°C° 0 mm 3 m/S 757 mmHg 62%
17:00 +13°C° 0 mm 3 m/S 757 mmHg 67%
18:00 +12°C° 0 mm 2 m/S 756 mmHg 72%
19:00 +12°C° 0 mm 2 m/S 757 mmHg 73%
20:00 +10°C° 0 mm 2 m/S 757 mmHg 74%
21:00 +10°C° 0 mm 2 m/S 757 mmHg 75%
22:00 +9°C° 0 mm 2 m/S 757 mmHg 76%
23:00 +9°C° 0 mm 2 m/S 757 mmHg 76%

26 September, Samstag

Zeit Temperatur Niederschläge Wind Luftdruck Luftfeuchtigkeit
00:00 +9°C° 0 mm 2 m/S 757 mmHg 76%
01:00 +8°C° 0 mm 2 m/S 757 mmHg 77%
02:00 +8°C° 0 mm 2 m/S 757 mmHg 79%
03:00 +9°C° 0 mm 1 m/S 758 mmHg 80%
04:00 +7°C° 0 mm 2 m/S 758 mmHg 80%
05:00 +7°C° 0 mm 2 m/S 758 mmHg 80%
06:00 +7°C° 0 mm 2 m/S 758 mmHg 80%
07:00 +8°C° 0 mm 2 m/S 758 mmHg 75%
08:00 +10°C° 0 mm 3 m/S 758 mmHg 69%
09:00 +12°C° 0 mm 3 m/S 758 mmHg 63%
10:00 +13°C° 0 mm 3 m/S 758 mmHg 60%
11:00 +14°C° 0 mm 3 m/S 758 mmHg 56%
12:00 +17°C° 0 mm 3 m/S 758 mmHg 52%
13:00 +17°C° 0 mm 3 m/S 758 mmHg 53%
14:00 +17°C° 0 mm 3 m/S 758 mmHg 53%
15:00 +17°C° 0 mm 3 m/S 758 mmHg 53%
16:00 +14°C° 0 mm 3 m/S 758 mmHg 59%
17:00 +13°C° 0 mm 3 m/S 758 mmHg 65%
18:00 +11°C° 0 mm 3 m/S 758 mmHg 71%
19:00 +11°C° 0 mm 3 m/S 759 mmHg 72%
20:00 +10°C° 0 mm 3 m/S 759 mmHg 72%
21:00 +10°C° 0 mm 2 m/S 759 mmHg 72%
22:00 +10°C° 0 mm 2 m/S 759 mmHg 73%
23:00 +9°C° 0 mm 2 m/S 759 mmHg 73%

27 September, Sonntag

Zeit Temperatur Niederschläge Wind Luftdruck Luftfeuchtigkeit
00:00 +9°C° 0 mm 2 m/S 759 mmHg 73%
01:00 +9°C° 0 mm 2 m/S 759 mmHg 74%
02:00 +9°C° 0 mm 2 m/S 760 mmHg 75%
03:00 +8°C° 0 mm 2 m/S 760 mmHg 75%
04:00 +8°C° 0 mm 2 m/S 760 mmHg 76%
05:00 +8°C° 0 mm 2 m/S 760 mmHg 77%
06:00 +7°C° 0 mm 2 m/S 760 mmHg 78%
07:00 +9°C° 0 mm 2 m/S 760 mmHg 74%
08:00 +10°C° 0 mm 2 m/S 760 mmHg 69%
09:00 +12°C° 0 mm 3 m/S 760 mmHg 64%
10:00 +13°C° 0 mm 3 m/S 760 mmHg 60%
11:00 +14°C° 0 mm 3 m/S 760 mmHg 56%
12:00 +16°C° 0 mm 3 m/S 760 mmHg 52%
13:00 +16°C° 0 mm 3 m/S 760 mmHg 53%
14:00 +16°C° 0 mm 2 m/S 760 mmHg 53%
15:00 +16°C° 0 mm 2 m/S 760 mmHg 54%
16:00 +15°C° 0 mm 2 m/S 760 mmHg 58%
17:00 +14°C° 0 mm 2 m/S 760 mmHg 62%
18:00 +12°C° 0 mm 2 m/S 760 mmHg 66%
19:00 +12°C° 0 mm 2 m/S 760 mmHg 67%
20:00 +11°C° 0 mm 1 m/S 760 mmHg 68%
21:00 +11°C° 0 mm 1 m/S 760 mmHg 69%
22:00 +11°C° 0 mm 1 m/S 760 mmHg 69%
23:00 +11°C° 0 mm 1 m/S 760 mmHg 70%

28 September, Montag

Zeit Temperatur Niederschläge Wind Luftdruck Luftfeuchtigkeit
00:00 +10°C° 0 mm 1 m/S 760 mmHg 71%
01:00 +10°C° 0 mm 1 m/S 760 mmHg 72%
02:00 +10°C° 0 mm 1 m/S 760 mmHg 72%
03:00 +10°C° 0 mm 1 m/S 760 mmHg 73%
04:00 +9°C° 0 mm 1 m/S 760 mmHg 74%
05:00 +9°C° 0 mm 1 m/S 760 mmHg 75%
06:00 +9°C° 0 mm 1 m/S 760 mmHg 76%
07:00 +10°C° 0 mm 1 m/S 760 mmHg 71%
08:00 +12°C° 0 mm 2 m/S 760 mmHg 66%
09:00 +13°C° 0 mm 2 m/S 760 mmHg 62%
10:00 +14°C° 0 mm 2 m/S 760 mmHg 58%
11:00 +15°C° 0 mm 2 m/S 760 mmHg 54%
12:00 +16°C° 0 mm 2 m/S 761 mmHg 50%
13:00 +16°C° 0 mm 2 m/S 760 mmHg 50%
14:00 +16°C° 0 mm 2 m/S 760 mmHg 50%
15:00 +16°C° 0 mm 2 m/S 760 mmHg 51%
16:00 +14°C° 0 mm 2 m/S 760 mmHg 55%
17:00 +13°C° 0 mm 2 m/S 760 mmHg 60%
18:00 +11°C° 0 mm 1 m/S 760 mmHg 64%
19:00 +11°C° 0 mm 1 m/S 760 mmHg 65%
20:00 +11°C° 0 mm 1 m/S 760 mmHg 66%
21:00 +10°C° 0 mm 1 m/S 760 mmHg 67%
22:00 +10°C° 0 mm 1 m/S 760 mmHg 68%
23:00 +10°C° 0 mm 1 m/S 761 mmHg 69%
Mehr zeigen